Sexton Summit, OR

8:24 PM PDT on October 23, 2019 (GMT -0700)
Sexton Summit

Weather History for KSXT - August, 2019

Change the Weather History Date:

Monday, August 12, 2019

  Actual Average Record
Temperature  
Mean Temperature 65 °F -  
Max Temperature 77 °F 75 °F 89 °F (2002)
Min Temperature 55 °F 53 °F 45 °F (2007)
Growing Degree Days 15 (Base 50)    
Moisture  
Dew Point 47 °F    
Average Humidity 55    
Maximum Humidity 72    
Minimum Humidity 27    
Precipitation  
Precipitation 0.00 in - - ()
Sea Level Pressure  
Sea Level Pressure 30.05 in    
Wind  
Wind Speed 4 mph (NNE)    
Max Wind Speed 9 mph    
Max Gust Speed -    
Visibility 10 miles    
Events      
Averages and records for this station are not official NWS values.
T = Trace of Precipitation, MM = Missing Value Source: NWS Daily Summary

Daily Weather History Graph

Daily Weather History Graph

Search for Another Location

Airport or City:

Astronomy

Aug. 12, 2019 Rise Set
Actual Time 6:16 AM PDT 8:19 PM PDT
Civil Twilight 5:46 AM PDT 8:50 PM PDT
Nautical Twilight 5:08 AM PDT 9:27 PM PDT
Astronomical Twilight 4:26 AM PDT 10:08 PM PDT
Moon 6:56 PM PDT (8/12) 3:27 AM PDT (8/12)
Length of Visible Light 15h 04m
Length of Day
14h 02m
Waxing Gibbous, 93% of the Moon is Illuminated
Aug 12
Waxing Gibbous
Aug 15
Full
Aug 23
Last Quarter
Aug 30
New
Sep 5
First Quarter

Hourly Weather History & Observations

Time (PDT) Temp. Dew Point Humidity Pressure Visibility Wind Dir Wind Speed Gust Speed Precip Events Conditions
12:56 AM 55.0 °F 46.0 °F 72% 30.11 in 10.0 mi North 6.9 mph - N/A   Clear
1:56 AM 57.0 °F 45.0 °F 64% 30.09 in 10.0 mi NNE 4.6 mph - N/A   Clear
2:56 AM 57.9 °F 46.0 °F 65% 30.07 in 10.0 mi Calm Calm - N/A   Clear
3:56 AM 57.0 °F 46.0 °F 67% 30.07 in 10.0 mi SSE 3.5 mph - N/A   Clear
4:56 AM 55.9 °F 45.0 °F 67% 30.07 in 10.0 mi SE 5.8 mph - N/A   Clear
5:56 AM 57.0 °F 45.0 °F 64% 30.07 in 10.0 mi SE 4.6 mph - N/A   Clear
6:56 AM 55.9 °F 46.9 °F 72% 30.08 in 10.0 mi SE 4.6 mph - N/A   Clear
8:56 AM 61.0 °F 48.9 °F 64% 30.09 in 10.0 mi ESE 4.6 mph - N/A   Clear
9:56 AM 64.0 °F 48.9 °F 58% 30.08 in 10.0 mi Variable 3.5 mph - N/A   Clear
10:56 AM 66.9 °F 53.1 °F 61% 30.09 in 10.0 mi Variable 3.5 mph - N/A   Clear
11:56 AM 70.0 °F 52.0 °F 53% 30.07 in 10.0 mi Calm Calm - N/A   Clear
12:56 PM 70.0 °F 51.1 °F 51% 30.07 in 10.0 mi Calm Calm - N/A   Clear
1:56 PM 73.0 °F 46.0 °F 38% 30.05 in 10.0 mi Calm Calm - N/A   Clear
2:56 PM 75.0 °F 43.0 °F 32% 30.03 in 10.0 mi Variable 3.5 mph - N/A   Clear
3:56 PM 73.9 °F 37.9 °F 27% 30.02 in 10.0 mi Calm Calm - N/A   Clear
4:56 PM 75.0 °F 39.9 °F 28% 30.01 in 10.0 mi NW 4.6 mph - N/A   Clear
5:56 PM 75.0 °F 42.1 °F 31% 30.01 in 10.0 mi Calm Calm - N/A   Clear
6:56 PM 72.0 °F 48.0 °F 43% 30.01 in 10.0 mi Variable 3.5 mph - N/A   Clear
7:56 PM 66.0 °F 48.0 °F 52% 30.03 in 10.0 mi Variable 4.6 mph - N/A   Clear
8:56 PM 64.0 °F 46.9 °F 54% 30.03 in 10.0 mi North 4.6 mph - N/A   Clear
9:56 PM 63.0 °F 50.0 °F 63% 30.04 in 10.0 mi NNW 8.1 mph - N/A   Clear
10:56 PM 61.0 °F 50.0 °F 67% 30.04 in 10.0 mi NNW 9.2 mph - N/A   Clear
11:56 PM 61.0 °F 48.9 °F 64% 30.03 in 10.0 mi North 9.2 mph - N/A   Clear